Location: Seattle
(47.6064°N, 122.3308°W)
Time: 22:15:42
(UTC-08:00)

Tiros 1 despin weight - Visible Passes

Search period start: 26 November 2020 00:00
Search period end: 06 December 2020 00:00
Orbit: 593 x 642 km, 48.2° (Epoch: 26 November)

Date Brightness Start Highest point End Pass type
(mag) Time Alt. Az. Time Alt. Az. Time Alt. Az.
26 Nov ? 17:13:09 10° WNW 17:17:51 77° SSW 17:22:29 10° ESE visible
26 Nov ? 18:55:01 10° W 18:59:01 28° SW 19:00:30 24° S visible
27 Nov ? 17:29:36 10° WNW 17:34:12 56° SSW 17:38:44 10° SE visible
27 Nov ? 19:12:04 10° W 19:15:05 17° SW 19:16:54 14° SSW visible
28 Nov ? 17:46:09 10° W 17:50:28 37° SSW 17:54:44 10° SE visible
29 Nov ? 18:02:54 10° W 18:06:37 23° SW 18:10:17 10° SSE visible
30 Nov ? 18:20:19 10° WSW 18:22:39 14° SW 18:24:58 10° SSW visible
01 Dec ? 16:53:58 10° W 16:58:06 31° SW 17:02:11 10° SSE visible
02 Dec ? 17:10:53 10° W 17:14:12 19° SW 17:17:28 10° S visible
03 Dec ? 17:29:12 10° WSW 17:30:10 11° SW 17:31:08 10° SW visible
